NOAA 16 DEB

Satellite information

Favourite Embed

Satellite Type and Status

DEBRISIN ORBIT

Key statistics

Satellite NOAA 16 DEB at a glance.

Uptime

9056

Days in orbit

Revolutions

≈ 14.7

Per day

Orbit

SSO

Sun Synchronous Orbit

Inclination

98.9

Latest

Satellite identification and parameters

Extended collection of information and parameters for NOAA 16 DEB.

Object identification

Identified? True

Debris? True

Object name: NOAA 16 DEB

International designator: 2000-055DL

Object number (NORAD): 41207

Object ID (CCSDS): 41207

Country: UNITED STATES OF AMERICA (US)

Current information (Y/N): Y

RCS size: SMALL

Orbital parameters

Period: 98.196 minutes

Inclination: 98.9258 deg

SMA: 7050.546 km

Apoapsis: 700.394 km

Periapsis: 644.429 km

RAAN: 55.7317 deg

Eccentricy: 0.0039689

Argument of periapsis: 254.9323 deg

Mean anomaly: 104.7485 deg

Mean motion: 14.66454499 rev/day

Mean motion (dot): 0.00008184 rev/day2

B* drag term: 0.0014703 1/REarth

Two-line elements (TLE)

Creation date: July 7, 2025, 10:26 p.m.

Reference frame: TEME

Reference center: EARTH

Epoch: July 7, 2025, 9:03 p.m. UTC

TLE line 0: 0 NOAA 16 DEB

TLE line 1: 1 41207U 00055DL 25188.87739245 .00008184 00000-0 14703-2 0 9991

TLE line 2: 2 41207 98.9258 55.7317 0039689 254.9323 104.7485 14.66454499501779

Live tracking on map

Real-time ground track for satellite NOAA 16 DEB.

In-orbit conjunctions

A list of the most updated potential collisions computed for object NOAA 16 DEB.

Target Orbit TCA Probability of collision Miss distance Type
SL-14 R/B LEO 2025-07-07 05:53:16 0.0003011386 136.0 (m) ROCKET BODY
COSMOS 2251 DEB LEO 2025-05-05 02:10:21 0.000101397 329.0 (m) DEBRIS
COSMOS 614 LEO 2024-11-14 14:54:51 0.0001568497 134.0 (m) PAYLOAD

Associated space launch

The NOAA K, L and M POES satellites begin the fifth generation of improved environmental monitoring in support of NOAA missions. The instrument payload has significant improvements and additions/deletions. The instrument changes have effected the spacecraft subsystems and data formats.

NOAA 16 DEB was lifted into orbit during the mission ‘Titan II SLV | NOAA 16’, on board a Titan II SLV space rocket.

The launch took place on Sept. 21, 2000, 10:22 a.m. from Space Launch Complex 4W.

For more information about the launch, click the button.

Launch to space Titan II SLV | NOAA 16
Titan II SLV | NOAA 16

Agency: N/A

Status: Launch Successful

Launch date: Sept. 21, 2000, 10:22 a.m. UTC

Rocket: Titan II SLV

Launch pad: Space Launch Complex 4W

Location: Vandenberg SFB, CA, USA

...

Latest news about this satellite

There are no fresh news available about this satellite. Check back as we update our databases every day.


Newsletter sign-up

Weekly statistics, charts and insights to help you stay on top of the space industry.